This demonstration page uses our WeatherBlox Daily Observations layout. Learn more.

Hourly Observations for February 5, 2020

Temp ( °F °C ) Dew Point ( °F °C ) Humidity (%) Winds ( mph kmh ) Pressure ( in mb ) Visibility ( mi km ) Precip ( " mm )
12:15 am 00:15 Mostly Cloudy 52 11 52 11 100 100 W 3 6 29.78 1009 10 16.0934 0 0
12:35 am 00:35 Mostly Cloudy 52 11 52 11 100 100 W 3 6 29.79 1009 10 16.0934 0 0
12:55 am 00:55 Cloudy 54 12 52 11 94 94 Calm 29.79 1009 10 16.0934 0 0
1:15 am 01:15 Mostly Cloudy 54 12 52 11 94 94 Calm 29.78 1009 10 16.0934 0 0
1:35 am 01:35 Cloudy 54 12 52 11 94 94 Calm 29.78 1009 10 16.0934 0 0
1:55 am 01:55 Cloudy 54 12 52 11 94 94 Calm 29.78 1009 10 16.0934 0 0
2:15 am 02:15 Cloudy 52 11 52 11 100 100 E 3 6 29.79 1009 10 16.0934 0 0
2:35 am 02:35 Cloudy 54 12 52 11 94 94 Calm 29.8 1009 10 16.0934 0 0
2:55 am 02:55 Cloudy 52 11 52 11 100 100 Calm 29.8 1009 10 16.0934 0 0
3:15 am 03:15 Cloudy 52 11 52 11 100 100 Calm 29.8 1009 10 16.0934 0 0
3:55 am 03:55 Cloudy 54 12 52 11 94 94 N 3 6 29.8 1009 10 16.0934 0 0
4:15 am 04:15 Cloudy 55 13 52 11 88 88 N 7 11 29.82 1010 10 16.0934 0 0
4:35 am 04:35 Cloudy 50 10 45 7 82 82 NNE 21 33 29.87 1011 10 16.0934 0 0
4:55 am 04:55 Cloudy 45 7 43 6 93 93 NNE 23 37 29.9 1013 10 16.0934 0 0
5:15 am 05:15 Cloudy 43 6 41 5 93 93 NNE 14 22 29.92 1013 10 16.0934 0 0
5:35 am 05:35 Cloudy 43 6 39 4 87 87 NNE 17 28 29.93 1014 10 16.0934 0 0
5:55 am 05:55 Cloudy 41 5 37 3 87 87 NNE 13 20 29.96 1015 10 16.0934 0 0
6:15 am 06:15 Cloudy 41 5 37 3 87 87 NNE 10 17 29.96 1015 10 16.0934 0 0
6:35 am 06:35 Cloudy 39 4 37 3 93 93 NNE 8 13 30 1016 10 16.0934 0 0
6:55 am 06:55 Cloudy 37 3 37 3 100 100 NNE 12 19 30.01 1016 7 11.26538 0 0
7:15 am 07:15 Cloudy 37 3 37 3 100 100 NE 16 26 30.02 1016 7 11.26538 0 0
7:35 am 07:35 Cloudy 37 3 37 3 100 100 NE 13 20 30.03 1017 5 8.0467 0 0
7:55 am 07:55 Cloudy 37 3 37 3 100 100 NNE 9 15 30.04 1017 4 6.43736 0 0
8:15 am 08:15 Cloudy 36 2 36 2 100 100 NNE 8 13 30.07 1018 7 11.26538 0 0
8:35 am 08:35 Cloudy 36 2 36 2 100 100 NE 8 13 30.07 1018 7 11.26538 0 0
8:55 am 08:55 Cloudy 36 2 36 2 100 100 NE 10 17 30.09 1019 2.5 4.02335 0 0
9:15 am 09:15 Cloudy 36 2 36 2 100 100 NNE 9 15 30.1 1019 2 3.21868 0 0
9:35 am 09:35 Cloudy 36 2 36 2 100 100 NE 9 15 30.1 1019 3 4.82802 0 0
9:55 am 09:55 Cloudy 36 2 36 2 100 100 NNE 8 13 30.1 1019 5 8.0467 0 0
10:15 am 10:15 Cloudy 36 2 36 2 100 100 NE 9 15 30.1 1019 10 16.0934 0 0
10:35 am 10:35 Cloudy 37 3 34 1 87 87 NNE 7 11 30.11 1020 10 16.0934 0 0
10:55 am 10:55 Cloudy 37 3 32 0 81 81 NE 8 13 30.12 1020 10 16.0934 0 0
11:15 am 11:15 Cloudy 36 2 32 0 87 87 NE 8 13 30.12 1020 10 16.0934 0 0
11:35 am 11:35 Cloudy 36 2 34 1 93 93 NNE 8 13 30.12 1020 10 16.0934 0 0
11:55 am 11:55 Cloudy 37 3 34 1 87 87 NNE 6 9 30.12 1020 10 16.0934 0 0
12:15 pm 12:15 Cloudy 37 3 32 0 81 81 NE 8 13 30.12 1020 10 16.0934 0 0
12:35 pm 12:35 Cloudy 37 3 32 0 81 81 Calm 30.1 1019 10 16.0934 0 0
12:55 pm 12:55 Cloudy 37 3 32 0 81 81 NNE 3 6 30.09 1019 10 16.0934 0 0
1:15 pm 13:15 Cloudy 39 4 32 0 75 75 NNE 6 9 30.08 1018 10 16.0934 0 0
1:35 pm 13:35 Cloudy 39 4 30 -1 70 70 NE 9 15 30.07 1018 10 16.0934 0 0
1:55 pm 13:55 Cloudy 41 5 28 -2 61 61 ENE 8 13 30.05 1018 10 16.0934 0 0
2:15 pm 14:15 Cloudy 41 5 30 -1 66 66 NE 7 11 30.05 1018 10 16.0934 0 0
2:35 pm 14:35 Cloudy 39 4 30 -1 70 70 ENE 8 13 30.05 1017 10 16.0934 0 0
2:55 pm 14:55 Cloudy 39 4 30 -1 70 70 E 5 7 30.06 1018 10 16.0934 0 0
3:15 pm 15:15 Cloudy 39 4 30 -1 70 70 ENE 6 9 30.05 1017 10 16.0934 0 0
3:35 pm 15:35 Cloudy 39 4 30 -1 70 70 NE 5 7 30.05 1017 10 16.0934 0 0
3:55 pm 15:55 Cloudy 39 4 30 -1 70 70 ENE 5 7 30.05 1017 10 16.0934 0 0
4:15 pm 16:15 Cloudy 39 4 32 0 75 75 ENE 5 7 30.04 1017 10 16.0934 0 0
4:35 pm 16:35 Cloudy 39 4 32 0 75 75 Calm 30.05 1017 10 16.0934 0 0
4:55 pm 16:55 Cloudy 39 4 32 0 75 75 E 3 6 30.05 1017 10 16.0934 0 0
5:15 pm 17:15 Cloudy 39 4 32 0 75 75 Calm 30.05 1017 10 16.0934 0 0
5:35 pm 17:35 Cloudy 39 4 34 1 81 81 NE 7 11 30.06 1018 10 16.0934 0 0
6:15 pm 18:15 Cloudy 37 3 36 2 93 93 ESE 5 7 30.04 1017 10 16.0934 0 0
6:35 pm 18:35 Cloudy 37 3 36 2 93 93 E 5 7 30.05 1018 10 16.0934 0 0
6:55 pm 18:55 Cloudy 37 3 36 2 93 93 ESE 7 11 30.05 1018 10 16.0934 0 0
7:15 pm 19:15 Cloudy 37 3 36 2 93 93 SE 6 9 30.04 1017 10 16.0934 0 0
7:35 pm 19:35 Cloudy 37 3 36 2 93 93 ESE 7 11 30.03 1017 7 11.26538 0 0
7:55 pm 19:55 Cloudy 36 2 36 2 100 100 ESE 6 9 30.03 1017 5 8.0467 0 0
8:15 pm 20:15 Cloudy 36 2 36 2 100 100 E 6 9 30.03 1017 5 8.0467 0 0
8:35 pm 20:35 Cloudy 36 2 36 2 100 100 E 6 9 30.02 1017 4 6.43736 0 0
8:55 pm 20:55 Cloudy 36 2 36 2 100 100 ESE 3 6 30.02 1017 7 11.26538 0 0
9:15 pm 21:15 Cloudy 36 2 36 2 100 100 ESE 5 7 30.01 1016 5 8.0467 0.01 0.254
9:35 pm 21:35 Cloudy 36 2 36 2 100 100 ESE 6 9 29.99 1016 4 6.43736 0.01 0.254
9:55 pm 21:55 Cloudy 36 2 36 2 100 100 Calm 29.99 1016 3 4.82802 0.02 0.508
10:15 pm 22:15 Cloudy 36 2 36 2 100 100 Calm 29.98 1015 2.5 4.02335 0 0
10:35 pm 22:35 Cloudy 36 2 36 2 100 100 E 3 6 29.97 1015 2 3.21868 0.01 0.254
10:55 pm 22:55 Cloudy 34 1 34 1 100 100 ESE 3 6 29.96 1015 2.5 4.02335 0.04 1.016
11:15 pm 23:15 Cloudy 34 1 34 1 100 100 SE 3 6 29.94 1014 2.5 4.02335 0.02 0.508
11:35 pm 23:35 Cloudy 36 2 36 2 100 100 Calm 29.94 1014 2 3.21868 0.04 1.016
11:55 pm 23:55 Cloudy 36 2 36 2 100 100 Calm 29.93 1013 2 3.21868 0.05 1.27

Powered by AerisWeather